This is the latest recevied weather packets stored in our database for station/object XE2MDH-15. If no packets are shown the sender has not sent any weather packets the latest 10 day(s).
| Time | Temp. | Humidity | Pressure | Rain* | Wind** | Luminosity | Snow |
|---|---|---|---|---|---|---|---|
| 1777872770 | 18.89° C | 14% | 809.9 hPa | - | - | - | - |
| 1777871870 | 19.44° C | 14% | 809.8 hPa | - | - | - | - |
| 1777870973 | 20.56° C | 14% | 809.8 hPa | - | - | - | - |
| 1777870073 | 21.11° C | 14% | 809.6 hPa | - | - | - | - |
| 1777869173 | 21.11° C | 14% | 809.7 hPa | - | - | - | - |
| 1777868272 | 22.22° C | 14% | 809.5 hPa | - | - | - | - |
| 1777867372 | 22.22° C | 14% | 809.4 hPa | - | - | - | - |
| 1777866472 | 22.22° C | 14% | 809.2 hPa | - | - | - | - |
| 1777865572 | 21.67° C | 14% | 808.8 hPa | - | - | - | - |
| 1777864672 | 22.22° C | 14% | 808.4 hPa | - | - | - | - |
| 1777863772 | 22.78° C | 14% | 808.2 hPa | - | - | - | - |
| 1777862871 | 23.33° C | 14% | 807.9 hPa | - | - | - | - |
| 1777861971 | 25° C | 14% | 807.7 hPa | - | - | - | - |
| 1777861071 | 25.56° C | 14% | 807.2 hPa | - | - | - | - |
| 1777860171 | 26.11° C | 15% | 806.9 hPa | - | - | - | - |
| 1777859271 | 26.67° C | 15% | 806.7 hPa | - | - | - | - |
| 1777858371 | 27.78° C | 15% | 806.6 hPa | - | - | - | - |
| 1777857470 | 28.89° C | 16% | 806.6 hPa | - | - | - | - |
| 1777856570 | 31.11° C | 16% | 806.6 hPa | - | - | - | - |
| 1777855670 | 35.56° C | 17% | 806.4 hPa | - | - | - | - |
| 1777854770 | 43.33° C | 19% | 806.3 hPa | - | - | - | - |
| 1777853870 | 46.67° C | 20% | 806.3 hPa | - | - | - | - |
| 1777852970 | 48.89° C | 20% | 806.2 hPa | - | - | - | - |
| 1777852069 | 48.33° C | 21% | 806.2 hPa | - | - | - | - |
| 1777851169 | 48.89° C | 21% | 806.2 hPa | - | - | - | - |
* Rain since midnight (hover to see other rain measurements)
** Current wind speed in m/s (hover to see current wind gust speed)